This demonstration page uses our WeatherBlox Daily Observations layout. Learn more.

40.92945, -100.16068

Hourly Observations for June 12, 2017

Temp ( °F °C ) Dew Point ( °F °C ) Humidity (%) Winds ( mph kmh ) Pressure ( in mb ) Visibility ( mi km ) Precip ( " mm )
12:15 am 00:15 Clear 77 25.1 69 20.6 76 76 ENE 9 15 29.62 1003 10 16.0934 0 0
12:35 am 00:35 Clear 76 24.5 69 20.6 79 79 ENE 7 11 29.62 1003 10 16.0934 0 0
12:55 am 00:55 Clear 76 24.2 69 20.7 81 81 E 6 9 29.65 1004 10 16.0934 0 0
1:15 am 01:15 Clear 76 24.7 69 20.5 78 78 SE 9 15 29.62 1003 10 16.0934 0 0
1:35 am 01:35 Clear 79 26 68 20.1 70 70 SE 13 20 29.62 1003 10 16.0934 0 0
1:55 am 01:55 Clear 78 25.8 68 20 70 70 SE 14 22 29.62 1003 10 16.0934 0 0
2:15 am 02:15 Clear 78 25.5 68 20 72 72 SE 13 20 29.59 1002 10 16.0934 0 0
2:35 am 02:35 Clear 77 24.9 68 20 74 74 SE 12 19 29.59 1002 10 16.0934 0 0
2:55 am 02:55 Clear 76 24.5 68 19.8 75 75 SE 10 17 29.59 1002 10 16.0934 0 0
3:15 am 03:15 Clear 76 24.2 68 20 77 77 SE 9 15 29.59 1002 10 16.0934 0 0
3:35 am 03:35 Clear 75 24 68 19.9 78 78 SE 10 17 29.62 1003 10 16.0934 0 0
3:55 am 03:55 Clear 74 23.6 68 19.8 79 79 SE 9 15 29.62 1003 10 16.0934 0 0
4:15 am 04:15 Clear 74 23.1 68 19.8 82 82 SE 9 15 29.62 1003 10 16.0934 0 0
4:35 am 04:35 Clear 73 22.7 67 19.6 83 83 ESE 8 13 29.62 1003 10 16.0934 0 0
4:55 am 04:55 Clear 72 22.2 67 19.5 85 85 ESE 7 11 29.62 1003 10 16.0934 0 0
5:15 am 05:15 Clear 72 22.1 67 19.5 85 85 ESE 6 9 29.65 1004 10 16.0934 0 0
5:35 am 05:35 Clear 71 21.5 67 19.4 88 88 ESE 6 9 29.65 1004 10 16.0934 0 0
5:55 am 05:55 Clear 70 21.1 67 19.5 91 91 E 6 9 29.65 1004 10 16.0934 0 0
6:15 am 06:15 Sunny 70 21.2 67 19.5 90 90 ESE 6 9 29.65 1004 10 16.0934 0 0
6:35 am 06:35 Sunny 70 21.3 67 19.6 90 90 ESE 7 11 29.65 1004 10 16.0934 0 0
6:55 am 06:55 Sunny 71 21.5 67 19.7 90 90 ESE 7 11 29.65 1004 10 16.0934 0 0
7:15 am 07:15 Sunny 72 22 68 20 88 88 ESE 6 9 29.65 1004 10 16.0934 0 0
7:35 am 07:35 Sunny 72 22.3 68 20 87 87 ESE 7 11 29.65 1004 10 16.0934 0 0
7:55 am 07:55 Sunny 73 22.7 68 20 85 85 SE 7 11 29.65 1004 10 16.0934 0 0
8:15 am 08:15 Sunny 74 23.3 68 20.1 82 82 SE 8 13 29.65 1004 10 16.0934 0 0
8:35 am 08:35 Partly Cloudy 75 23.7 68 20.1 80 80 SE 10 17 29.65 1004 10 16.0934 0 0
8:55 am 08:55 Mostly Cloudy 76 24.4 69 20.3 78 78 SSE 12 19 29.65 1004 10 16.0934 0 0
9:15 am 09:15 Mostly Cloudy 76 24.7 69 20.4 77 77 SSE 10 17 29.68 1005 10 16.0934 0 0
9:35 am 09:35 Cloudy 77 25.1 69 20.3 75 75 SE 10 17 29.65 1004 10 16.0934 0 0
9:55 am 09:55 Mostly Cloudy 78 25.4 68 20.2 73 73 SE 10 17 29.65 1004 10 16.0934 0 0
10:15 am 10:15 Partly Cloudy 79 25.9 69 20.3 71 71 SE 8 13 29.65 1004 10 16.0934 0 0
10:35 am 10:35 Partly Cloudy 80 26.5 69 20.6 70 70 SSE 8 13 29.65 1004 10 16.0934 0 0
10:55 am 10:55 Partly Cloudy 80 26.9 69 20.6 68 68 SSE 7 11 29.65 1004 10 16.0934 0 0
11:15 am 11:15 Mostly Cloudy 81 27.3 69 20.6 67 67 SE 5 7 29.65 1004 10 16.0934 0 0
11:35 am 11:35 Cloudy 81 27.2 70 20.9 69 69 ESE 8 13 29.62 1003 10 16.0934 0 0
11:55 am 11:55 Cloudy 83 28.1 70 21 65 65 SE 8 13 29.59 1002 10 16.0934 0 0
12:15 pm 12:15 Mostly Cloudy 83 28.4 69 20.6 63 63 SE 5 7 29.59 1002 10 16.0934 0 0
12:35 pm 12:35 Mostly Cloudy 84 28.7 69 20.8 62 62 SE 10 17 29.59 1002 10 16.0934 0 0
12:55 pm 12:55 Mostly Cloudy 84 28.8 69 20.8 62 62 SE 12 19 29.59 1002 10 16.0934 0 0
1:15 pm 13:15 Mostly Cloudy 85 29.4 70 20.9 60 60 SE 13 20 29.59 1002 10 16.0934 0 0
1:35 pm 13:35 Partly Cloudy 85 29.7 69 20.5 58 58 ESE 10 17 29.59 1002 10 16.0934 0 0
1:55 pm 13:55 Sunny 86 30.2 69 20.6 56 56 SSE 16 26 29.56 1001 10 16.0934 0 0
2:15 pm 14:15 Partly Cloudy 88 30.9 69 20.8 55 55 SSE 16 26 29.56 1001 10 16.0934 0 0
2:35 pm 14:35 Partly Cloudy 88 31 68 20.2 53 53 SE 15 24 29.56 1001 10 16.0934 0 0
2:55 pm 14:55 Sunny 89 31.5 68 19.8 50 50 SE 15 24 29.53 1000 10 16.0934 0 0
3:15 pm 15:15 Partly Cloudy 89 31.5 67 19.5 49 49 S 18 30 29.53 1000 10 16.0934 0 0
3:35 pm 15:35 Partly Cloudy 89 31.6 66 18.9 47 47 SSE 10 17 29.53 1000 10 16.0934 0 0
3:55 pm 15:55 Partly Cloudy 88 31 66 19 49 49 SE 15 24 29.56 1001 10 16.0934 0 0
4:15 pm 16:15 Mostly Cloudy 90 32.2 66 18.9 45 45 SSE 10 17 29.53 1000 10 16.0934 0 0
4:35 pm 16:35 Mostly Cloudy 89 31.5 65 18.3 45 45 SE 12 19 29.53 1000 10 16.0934 0 0
4:55 pm 16:55 Mostly Cloudy 90 32.2 65 18.4 44 44 SSE 17 28 29.53 1000 10 16.0934 0 0
5:15 pm 17:15 Partly Cloudy 89 31.6 65 18.2 45 45 SE 16 26 29.53 1000 10 16.0934 0 0
5:35 pm 17:35 Partly Cloudy 91 32.5 65 18.3 43 43 SSE 18 30 29.5 999 10 16.0934 0 0
5:55 pm 17:55 Partly Cloudy 91 32.6 64 17.7 41 41 SE 18 30 29.5 999 10 16.0934 0 0
6:15 pm 18:15 Sunny 91 32.7 64 17.5 40 40 SE 15 24 29.5 999 10 16.0934 0 0
6:35 pm 18:35 Sunny 91 33 64 17.8 40 40 SE 16 26 29.5 999 10 16.0934 0 0
6:55 pm 18:55 Sunny 91 33 64 17.7 40 40 SE 15 24 29.5 999 10 16.0934 0 0
7:15 pm 19:15 Sunny 91 33 64 17.8 40 40 SE 15 24 29.5 999 10 16.0934 0 0
7:35 pm 19:35 Sunny 92 33.1 64 18 41 41 SE 18 30 29.5 999 10 16.0934 0 0
7:55 pm 19:55 Sunny 91 32.9 65 18.2 42 42 SE 15 24 29.47 998 10 16.0934 0 0
8:15 pm 20:15 Sunny 91 32.5 64 18 42 42 SE 18 30 29.47 998 10 16.0934 0 0
8:35 pm 20:35 Sunny 90 32 64 18 43 43 SE 21 33 29.47 998 10 16.0934 0 0
8:55 pm 20:55 Sunny 89 31.5 63 17.3 43 43 SE 20 31 29.47 998 10 16.0934 0 0
9:15 pm 21:15 Clear 88 31 63 17 43 43 SE 18 30 29.47 998 10 16.0934 0 0
9:35 pm 21:35 Clear 87 30.6 63 17.3 45 45 SSE 17 28 29.5 999 10 16.0934 0 0
9:55 pm 21:55 Clear 86 30.1 64 17.5 47 47 SSE 17 28 29.53 1000 10 16.0934 0 0
10:15 pm 22:15 Clear 85 29.7 64 17.5 48 48 SSE 18 30 29.53 1000 10 16.0934 0 0
10:35 pm 22:35 Clear 85 29.5 64 17.6 49 49 SSE 17 28 29.53 1000 10 16.0934 0 0
10:55 pm 22:55 Clear 84 29 64 17.9 51 51 SSE 18 30 29.53 1000 10 16.0934 0 0
11:15 pm 23:15 Clear 84 28.7 65 18.1 53 53 SSE 18 30 29.53 1000 10 16.0934 0 0
11:35 pm 23:35 Clear 82 28 65 18.4 56 56 SSE 18 30 29.53 1000 10 16.0934 0 0
11:55 pm 23:55 Clear 82 27.8 65 18.6 57 57 SSE 20 31 29.53 1000 10 16.0934 0 0

Powered by AerisWeather